Theta_e
295 295 295 295 295 295 295 296 296 297 296 297 297 298 299 299 299 299 299 299 299 299 299 299 300 301 304 306 306 306 306 306 306 305 305 305 304 304 304 304 304 304 304 304 304 303 303 303 303 303 303 303 303 303 303 303 304 304 304 304 305 305 305 304 304 304 304 303 303 303 302 302 301 301 300 300 300 300 300 300 300 301 301 301 301 301
295 295 295 295 295 295 294 295 296 296 296 296 297 297 297 297 297 297 298 298 298 298 299 299 299 299 300 303 305 305 305 305 305 305 305 304 304 303 303 303 303 303 303 303 303 302 302 302 302 302 301 301 302 302 302 302 302 303 303 303 303 303 303 303 303 303 302 302 301 301 300 300 299 299 299 299 299 299 299 300 300 300 300 300 300 301
294 294 294 295 295 294 294 294 295 296 296 296 296 297 296 296 296 296 296 296 297 297 297 297 297 298 297 300 303 305 305 305 304 304 304 303 303 303 303 303 302 302 302 302 302 302 301 301 301 301 300 301 301 301 301 301 301 301 301 301 301 301 301 301 301 300 300 299 299 298 298 298 298 297 297 298 298 298 299 299 299 299 299 300 300 300
294 294 294 294 294 294 294 294 295 295 296 296 296 296 296 296 295 295 295 295 295 295 294 293 294 294 294 295 299 303 304 304 304 303 303 303 303 302 302 302 302 301 301 301 301 301 301 300 300 300 300 300 300 300 300 300 300 300 300 300 300 299 299 299 298 298 298 297 297 297 296 297 296 296 297 297 297 297 297 298 298 298 298 298 299 299
294 294 294 294 293 293 293 294 295 295 295 295 295 295 295 295 294 293 293 293 293 292 292 291 290 290 291 292 296 300 303 303 303 303 303 302 302 302 302 302 301 301 301 301 301 300 300 300 300 300 300 300 300 299 299 299 299 299 299 298 298 298 297 297 297 297 296 296 296 296 296 296 296 296 296 296 296 296 296 297 297 297 297 298 298 299
294 294 294 293 292 292 292 294 295 295 294 294 294 294 294 293 293 292 292 291 291 290 290 289 288 287 288 290 294 298 300 301 302 302 302 302 301 301 301 301 301 301 301 300 300 300 300 300 300 300 300 300 299 299 299 299 298 298 298 297 297 297 296 296 296 296 295 295 295 295 295 295 295 295 295 295 296 296 296 296 296 297 297 297 297 298
293 294 293 293 292 291 292 293 294 294 293 292 292 292 291 291 291 290 289 289 288 288 288 288 287 285 285 287 290 294 295 297 298 299 300 301 301 301 301 301 301 301 300 300 300 300 300 300 300 300 300 300 299 299 298 298 298 297 297 296 296 296 296 295 295 295 295 295 294 294 294 294 295 295 295 295 295 295 295 296 296 296 296 297 297 298
293 292 292 291 291 291 291 292 293 294 293 292 291 291 290 289 289 288 287 287 286 286 287 288 287 286 284 283 285 288 289 290 291 293 295 297 298 299 299 300 300 300 300 300 299 299 300 300 300 300 300 300 299 299 298 298 297 296 296 296 295 295 295 295 295 294 294 294 294 294 294 294 294 294 294 294 295 295 295 295 296 296 296 297 297 297
292 291 291 291 291 291 291 291 292 292 292 291 291 291 290 290 289 288 288 287 286 285 285 286 288 287 284 282 282 285 288 289 288 288 289 290 291 293 297 298 299 299 299 299 299 299 299 299 299 299 299 299 299 298 297 297 296 296 295 295 295 294 294 294 294 294 294 294 294 294 294 294 294 294 294 294 294 294 295 295 295 296 296 296 297 297
292 291 291 291 291 290 290 290 290 289 289 290 289 289 289 290 289 289 289 288 286 284 283 284 285 286 285 282 281 282 286 289 291 292 293 291 292 293 295 296 296 297 298 298 298 298 298 298 298 298 298 298 297 297 297 296 295 295 295 295 294 294 294 294 294 293 293 293 293 293 293 293 293 293 293 293 294 294 294 294 295 295 295 296 296 297
291 291 291 290 290 289 289 288 287 287 288 288 288 287 287 288 289 289 289 288 287 285 283 281 281 282 283 282 281 281 282 283 286 288 289 291 292 294 294 293 293 294 296 296 296 297 297 296 297 297 296 296 296 296 296 295 295 295 294 294 294 294 293 293 293 293 293 293 293 293 293 293 293 293 293 293 293 294 294 294 294 295 295 295 296 296
291 290 290 290 290 289 288 287 287 287 288 289 288 287 287 285 286 287 289 289 288 286 283 281 279 278 278 278 278 279 279 280 280 281 280 282 283 284 285 286 287 288 289 290 291 293 295 295 295 295 295 295 295 295 295 294 294 294 294 294 294 294 293 293 293 293 293 292 292 292 292 292 292 292 293 293 293 293 294 294 294 294 294 295 295 296
290 290 289 289 289 289 288 287 287 288 288 289 288 288 288 285 283 284 286 286 285 283 281 281 280 278 276 275 276 276 277 278 278 277 278 277 277 277 277 279 279 279 280 280 282 285 291 292 292 292 293 293 293 293 293 293 293 294 294 294 294 293 293 293 293 293 292 292 292 292 292 292 292 293 293 293 293 293 293 294 294 294 294 294 295 295
289 289 289 288 288 288 288 288 288 288 288 289 288 286 283 281 281 282 284 283 280 278 277 279 279 279 276 275 275 275 275 277 278 278 278 276 274 273 274 276 276 276 275 276 277 279 286 285 284 285 289 290 290 291 291 292 292 293 293 293 293 293 293 293 292 292 292 292 291 291 292 292 292 293 293 293 293 293 293 293 293 294 294 294 294 294
289 289 288 288 288 288 288 288 288 288 288 286 284 281 279 279 280 282 285 283 280 277 278 279 279 279 278 276 275 274 274 276 278 279 279 277 274 272 272 275 276 276 274 277 277 278 281 279 278 278 281 283 285 287 289 290 291 292 292 292 292 292 292 292 292 292 292 291 291 291 291 292 292 293 293 292 293 292 293 293 293 293 294 294 294 294
289 289 289 288 288 288 288 288 288 287 285 282 281 281 281 281 282 283 285 282 279 278 280 281 281 280 280 278 276 275 274 276 277 278 278 277 275 273 271 274 276 277 275 277 277 277 276 275 274 275 276 281 286 288 290 290 290 291 291 291 292 292 292 292 292 292 292 291 291 291 292 292 292 292 292 292 292 292 293 293 293 293 293 294 294 294
289 289 289 289 288 287 286 286 285 284 282 280 280 281 281 281 281 281 283 280 279 279 280 279 279 279 279 279 278 276 274 275 275 276 276 277 275 273 272 274 277 278 276 276 275 275 275 275 275 275 276 282 287 289 290 290 290 291 291 291 291 291 291 292 291 292 291 291 291 291 291 292 292 292 292 292 292 292 292 293 293 293 293 293 293 293
288 288 288 288 287 286 284 284 282 280 279 280 279 278 276 275 275 277 279 280 280 280 278 277 277 277 276 277 277 275 273 274 275 276 276 276 275 273 272 273 274 275 274 275 275 274 274 273 273 275 278 285 289 290 290 290 290 290 290 290 291 291 291 291 291 291 292 291 291 291 291 291 292 292 292 292 292 292 292 292 293 293 293 293 293 293
286 286 286 286 285 284 282 283 282 282 282 282 281 279 277 275 274 275 276 278 279 279 277 277 276 274 274 275 275 274 271 273 275 276 276 276 275 273 270 273 274 275 274 275 275 275 273 273 275 280 286 288 289 290 290 290 290 290 290 290 291 291 291 291 291 291 291 292 291 291 291 291 292 292 292 292 292 292 292 292 292 292 293 293 293 293
286 285 286 285 284 282 282 284 285 285 285 284 283 281 279 276 276 276 276 276 275 275 275 276 275 274 272 273 273 273 270 272 274 276 275 275 274 273 269 271 273 274 273 274 273 272 271 271 273 277 283 286 288 289 290 290 290 290 290 290 291 291 291 291 291 291 292 292 292 291 291 292 292 292 292 292 292 292 292 292 292 292 292 293 293 293
286 285 285 284 285 285 285 285 285 285 286 285 283 281 278 277 277 277 275 274 274 273 274 277 276 274 272 273 273 272 269 272 274 275 273 273 273 272 270 269 270 272 273 273 273 271 270 270 270 273 279 284 288 289 289 289 289 290 290 290 291 291 291 291 292 292 292 292 292 292 292 292 292 292 292 292 292 292 292 292 292 292 292 293 293 293
288 286 283 282 284 286 288 285 285 285 286 285 284 283 281 280 279 278 275 275 276 277 277 276 275 272 271 272 272 271 268 271 274 275 273 274 273 273 270 269 270 271 274 273 272 270 270 270 271 273 279 285 288 288 289 289 289 290 290 290 291 291 291 292 292 292 292 292 292 292 292 292 292 292 292 292 292 292 292 292 292 293 293 293 293 293
287 285 282 281 281 282 283 282 282 284 285 285 285 285 282 282 282 281 279 278 277 276 273 272 272 271 272 272 271 270 270 271 272 273 275 275 274 272 270 269 270 271 272 272 271 270 270 271 272 274 279 285 288 288 289 289 289 289 290 290 290 291 291 291 292 291 292 292 292 292 292 292 292 292 292 292 292 292 292 292 292 293 293 293 293 293
283 282 281 280 279 278 278 280 280 280 280 279 277 276 276 277 277 276 276 275 275 274 272 271 271 272 272 273 273 271 271 271 271 272 275 275 274 272 269 269 271 273 274 273 271 270 271 272 273 274 276 282 285 287 288 289 289 289 290 290 290 291 291 291 291 291 291 291 291 291 292 292 292 292 292 292 292 292 292 292 293 293 293 293 293 293
281 280 280 280 279 279 280 280 281 280 279 277 277 277 277 277 277 276 274 274 273 273 273 273 273 273 271 273 274 273 270 270 270 271 274 273 272 270 269 269 271 272 273 272 270 270 270 272 273 273 273 277 282 286 288 288 289 289 290 290 290 290 291 291 291 291 291 291 291 291 292 292 292 292 292 292 292 292 293 293 293 293 293 293 293 293
284 283 283 283 285 286 286 286 286 285 283 281 279 279 279 279 278 277 276 275 275 275 276 275 274 272 269 269 270 272 271 270 270 271 273 273 272 271 269 269 269 270 272 270 270 271 272 273 273 272 271 273 278 283 286 288 289 290 290 290 290 290 290 290 291 291 291 291 291 291 292 292 292 292 292 292 292 293 293 293 293 293 293 293 293 293
289 289 289 289 289 289 289 289 289 288 287 285 283 281 280 279 278 278 276 274 274 275 276 274 273 271 270 270 270 271 271 271 270 270 271 273 273 272 270 269 269 269 271 271 271 273 275 276 275 273 272 271 274 278 285 287 289 289 289 289 290 290 290 290 290 291 291 291 291 291 291 292 292 292 292 292 292 293 293 293 293 293 293 292 292 290
292 292 291 291 291 291 290 290 290 290 289 288 287 286 283 280 279 278 276 273 273 274 275 274 273 272 272 271 270 270 269 271 271 271 270 272 273 272 270 268 268 269 270 271 272 274 276 276 274 272 271 271 272 276 281 285 287 288 288 289 289 289 290 290 290 291 291 291 291 291 292 292 292 292 292 292 292 292 292 293 293 293 292 290 287 284
291 292 292 291 291 291 292 291 290 291 290 290 289 287 283 279 278 277 276 274 274 275 276 274 273 272 271 270 269 269 269 271 272 272 272 273 273 271 268 268 268 268 269 270 271 272 273 273 272 270 269 273 275 275 276 280 282 283 285 287 288 289 289 290 290 290 291 291 291 291 291 291 291 291 292 292 292 292 292 292 292 291 288 285 282 281
284 285 285 285 285 286 286 285 287 289 291 290 289 287 282 278 276 275 275 274 275 275 275 274 272 271 269 269 269 270 272 272 272 273 273 274 273 270 268 268 268 268 268 270 271 271 271 273 272 271 271 274 275 274 273 275 276 277 278 282 284 286 288 289 289 290 290 291 291 291 291 291 291 291 291 291 291 291 292 292 291 288 283 280 279 278
277 278 277 276 276 277 278 279 281 284 287 287 286 283 279 276 274 274 274 274 275 274 273 273 272 271 270 271 272 273 273 272 273 274 274 275 273 270 268 268 268 267 268 270 271 271 271 273 274 274 273 273 273 273 274 274 275 274 274 276 278 282 287 288 288 289 289 290 290 290 290 291 291 291 291 291 291 291 291 291 291 288 282 279 278 278
275 275 274 274 273 273 275 275 276 276 278 279 279 279 279 277 275 274 274 274 274 274 273 272 271 271 271 272 273 273 273 271 273 275 274 274 271 269 267 268 268 268 268 269 270 270 270 272 273 274 272 272 272 272 274 275 275 274 274 275 276 278 284 285 286 287 287 288 289 289 290 290 290 290 290 290 290 291 291 291 291 288 282 279 278 279
275 274 273 274 273 273 273 272 272 273 274 273 274 275 276 277 277 276 274 273 273 273 273 272 271 270 270 270 271 271 272 271 273 276 277 273 270 268 267 267 268 268 269 268 268 268 269 269 270 271 271 271 272 272 273 275 275 274 273 274 275 276 280 281 281 282 283 284 285 286 287 288 288 289 289 289 290 290 290 290 290 289 285 280 279 279
275 275 274 273 273 272 272 271 271 272 273 273 273 273 273 275 276 276 275 274 273 273 273 273 272 271 269 269 269 270 271 271 274 278 279 273 270 269 267 267 268 268 268 268 267 267 267 267 267 268 270 271 272 272 272 273 274 274 271 273 274 274 276 276 277 277 278 279 279 279 280 282 284 286 287 288 288 289 289 290 290 290 289 283 280 279
275 275 274 273 272 272 273 272 272 272 273 273 273 273 273 273 273 274 274 274 273 273 273 273 273 273 272 271 271 272 273 272 275 279 281 274 271 269 268 268 268 269 269 268 267 267 267 267 268 269 269 271 272 273 273 272 272 272 271 272 272 273 273 273 274 275 276 276 276 276 275 276 278 281 283 285 287 288 288 289 289 290 290 288 285 281
274 275 274 271 272 273 273 273 273 273 273 272 271 271 272 271 272 272 272 272 273 274 274 273 273 274 274 274 273 273 274 272 274 278 282 276 273 271 270 270 270 270 271 269 268 267 268 268 269 270 271 271 271 273 273 272 272 272 272 272 272 272 272 272 272 272 273 274 275 275 274 275 276 278 280 284 286 287 288 288 289 289 290 290 288 286
274 274 273 270 270 271 273 272 272 272 272 271 270 270 271 270 270 271 269 269 271 273 274 274 274 274 275 273 273 274 273 272 273 277 282 278 274 272 271 271 272 272 272 271 270 268 268 269 269 269 269 270 270 271 272 272 272 272 272 272 272 272 271 272 272 272 272 274 275 275 275 276 277 278 280 284 285 285 286 287 288 288 289 289 289 289
274 274 274 271 270 270 271 271 272 273 273 272 271 271 270 268 268 268 268 267 267 269 271 272 272 273 276 276 274 272 270 270 272 275 278 275 273 272 272 271 272 273 273 272 271 270 270 270 270 270 269 268 270 271 272 272 272 272 272 272 272 271 271 271 271 271 272 274 275 277 278 278 277 277 277 279 279 279 279 279 282 285 286 286 287 288
273 273 273 272 271 270 270 270 271 272 272 272 271 269 268 268 268 267 266 266 267 267 268 268 269 269 269 271 273 274 272 270 270 271 272 271 271 272 273 272 271 272 272 270 270 270 271 270 270 269 269 268 269 269 270 269 269 270 270 271 272 272 272 271 271 272 273 273 275 277 278 275 275 275 274 273 274 275 276 276 278 280 280 279 281 284
273 273 273 274 273 271 269 271 272 271 269 270 271 270 269 269 269 268 268 269 269 268 266 267 268 269 269 272 273 274 274 271 271 271 268 268 269 271 273 272 272 271 271 269 268 269 270 270 270 270 271 269 268 268 268 267 268 269 272 272 273 273 274 273 271 271 272 272 273 275 275 273 273 273 273 272 273 273 274 274 275 277 278 276 275 276
273 273 273 274 274 273 272 272 271 269 268 269 269 269 269 269 269 269 270 270 270 270 270 271 271 270 269 267 267 269 271 271 271 271 266 266 267 269 272 273 272 271 271 270 269 269 271 270 270 270 269 268 269 270 270 269 271 273 275 273 272 272 273 275 274 273 272 272 272 273 275 274 275 275 274 274 273 273 274 273 273 274 276 274 273 273
276 275 274 273 272 270 269 268 268 269 269 268 268 269 269 270 269 269 270 270 269 269 269 270 270 271 270 270 268 267 266 268 270 271 268 266 267 269 271 272 273 272 271 270 269 269 271 272 271 270 269 268 269 270 270 271 273 274 276 274 273 274 275 276 272 270 271 271 270 271 276 275 274 273 274 274 272 272 274 273 274 276 278 274 272 272
276 276 275 272 270 269 269 271 271 271 270 269 269 269 269 269 270 272 272 270 269 269 270 270 270 271 270 269 269 268 267 265 266 269 271 267 267 268 271 272 272 273 273 271 270 269 270 272 272 271 270 270 270 271 272 273 273 273 274 274 274 273 271 272 270 268 268 270 269 269 271 272 272 272 272 273 273 272 273 276 278 280 281 276 273 272
276 275 273 270 269 269 271 270 270 269 269 270 270 270 269 268 270 272 272 270 269 270 269 267 268 268 269 269 269 268 268 266 265 266 270 271 269 268 270 270 271 272 273 273 272 271 269 271 272 272 271 271 271 272 273 273 272 272 271 273 273 273 272 272 271 269 269 270 270 270 269 270 271 270 271 272 272 272 272 273 273 275 279 277 275 274
273 273 270 269 269 270 270 270 269 269 269 270 270 270 269 268 270 272 271 269 269 269 267 268 269 269 268 267 267 267 267 267 267 267 267 271 274 275 271 270 270 271 272 273 274 273 272 272 271 270 270 271 272 273 274 274 273 273 274 274 274 274 274 274 273 272 272 271 270 270 269 269 270 270 270 270 271 271 271 271 272 273 274 274 274 274
272 272 270 270 270 270 272 271 270 269 269 270 271 270 269 268 269 270 271 269 268 267 266 267 269 270 270 269 267 266 266 267 268 269 268 268 269 271 275 273 272 272 272 273 273 273 274 273 272 270 270 270 271 272 273 273 273 273 273 274 273 273 273 273 273 272 272 272 272 271 269 269 269 270 271 271 271 270 270 271 272 273 273 273 273 274
272 272 270 270 269 270 271 270 269 269 269 270 271 270 268 267 268 269 270 269 268 267 267 268 269 270 270 269 267 266 267 268 268 268 268 268 269 270 273 274 274 274 273 272 272 271 272 272 272 271 271 271 271 272 273 273 273 273 272 272 272 272 272 272 272 272 272 273 272 271 268 268 269 270 271 271 270 270 270 271 272 272 273 273 274 274
273 273 272 271 270 269 269 269 269 269 269 270 270 270 269 267 268 269 268 268 268 269 270 268 268 268 269 268 267 268 269 269 269 269 269 268 268 268 271 273 275 275 275 275 274 274 273 272 271 271 272 272 272 272 272 271 272 272 272 272 272 272 272 272 272 271 271 272 271 270 269 270 271 270 270 270 270 270 270 270 271 273 273 274 274 274
273 272 272 271 270 270 270 269 268 268 269 270 270 269 268 269 272 273 269 268 268 269 270 269 269 268 269 268 268 269 271 270 269 268 268 267 267 268 271 273 274 275 275 276 276 276 276 275 275 274 275 275 274 274 273 272 271 271 271 271 271 271 272 273 273 272 271 270 269 268 268 270 271 271 271 270 270 270 270 271 271 272 273 274 274 275
271 271 272 271 270 270 270 270 269 269 270 270 270 269 267 268 269 271 269 268 268 269 270 270 270 270 270 269 269 270 270 269 268 268 267 266 266 268 271 273 274 274 275 275 275 275 276 276 276 277 279 278 277 276 274 273 272 271 271 272 272 272 272 273 273 273 272 271 269 268 267 269 270 271 271 271 271 271 271 271 272 273 273 273 273 275
272 271 271 270 270 271 270 270 270 271 271 271 271 270 269 268 268 268 268 269 269 269 270 270 270 271 271 271 271 270 271 269 269 269 269 267 267 268 271 273 274 274 274 274 274 273 273 272 272 274 277 280 281 279 277 275 274 273 273 273 272 272 272 272 272 273 273 273 271 269 269 269 269 270 271 271 271 271 271 271 271 271 272 271 271 273
Wind_Speed
2 2 3 3 3 3 2 2 3 3 3 3 2 2 2 3 3 3 3 3 3 4 4 3 3 4 6 8 9 10 10 9 9 9 10 9 8 8 7 7 7 7 7 7 7 7 7 7 7 7 7 6 6 6 6 5 5 5 5 5 6 6 6 6 6 6 6 6 6 6 6 6 6 5 4 3 2 2 1 1 1 1 2 2 2 3
2 2 3 3 3 3 2 2 3 3 4 3 3 3 3 3 2 2 3 3 3 3 3 3 3 4 4 6 8 9 9 9 9 9 9 8 8 7 7 7 7 7 6 6 6 6 6 6 6 6 6 6 5 5 5 5 5 6 6 6 6 6 6 6 7 7 7 7 7 7 7 6 6 5 4 2 2 1 1 1 2 2 2 2 2 3
3 3 3 3 3 3 2 2 2 2 3 3 3 3 3 3 3 2 2 3 3 3 3 3 3 3 4 4 5 8 9 9 9 9 8 8 7 7 6 6 6 6 6 5 5 5 5 5 5 5 5 5 5 5 5 6 6 6 6 7 7 7 7 7 7 8 8 8 7 7 7 6 5 4 3 3 2 2 2 2 2 2 2 3 3 3
3 3 4 3 2 2 2 2 2 2 2 3 3 3 3 3 3 2 2 2 3 3 3 3 3 3 3 3 3 5 8 9 9 8 8 7 6 6 5 5 5 5 5 4 4 4 4 4 4 4 4 4 4 5 5 6 6 7 7 7 7 7 7 7 7 7 7 7 6 6 6 5 4 4 3 3 3 3 3 3 3 3 3 3 3 3
3 3 4 3 2 2 1 2 2 2 3 3 3 3 3 3 2 2 2 2 3 3 2 3 3 3 3 3 3 3 5 7 7 7 7 7 6 6 5 5 4 4 4 4 4 4 3 3 3 3 3 4 4 4 5 6 6 6 7 7 7 7 7 7 6 6 6 5 5 5 4 4 4 3 3 4 4 4 4 4 3 3 3 3 4 4
3 3 3 3 2 1 1 2 2 3 3 2 2 2 2 2 2 2 2 2 2 2 2 2 2 3 3 3 4 4 3 4 4 5 5 6 6 5 5 5 4 4 4 4 3 3 3 3 4 4 4 4 5 5 5 6 6 6 6 6 6 6 6 5 5 4 4 4 3 3 3 3 3 3 3 4 4 4 4 4 4 4 4 4 4 4
3 2 2 2 2 1 1 2 2 3 2 2 2 2 2 2 2 2 2 2 2 1 1 2 2 2 3 4 5 5 4 4 3 2 2 4 4 5 5 4 4 4 3 3 3 3 4 4 4 5 5 5 6 6 6 6 6 6 6 5 5 5 4 4 3 3 2 2 2 2 2 2 3 3 3 4 4 4 5 5 5 5 5 5 5 5
3 2 2 2 2 1 1 1 2 2 2 2 2 2 1 1 2 2 2 2 2 2 2 2 2 2 3 4 4 4 4 4 3 3 2 2 2 3 3 3 3 3 4 3 3 4 4 4 4 5 5 5 6 6 6 6 5 5 5 4 4 3 2 2 1 1 1 1 2 2 2 3 3 4 4 4 5 5 5 5 5 5 5 5 5 5
4 4 3 2 2 2 2 1 1 1 2 2 2 2 2 2 1 1 1 1 2 2 2 2 2 2 2 3 3 4 4 3 2 2 2 2 2 2 2 2 2 3 4 4 4 3 3 4 4 4 4 5 5 6 6 5 5 4 4 3 2 2 1 0 1 1 2 2 2 2 3 3 4 4 5 5 5 5 6 6 6 6 6 6 6 6
4 4 3 2 2 2 2 2 1 1 1 2 2 2 2 2 2 2 1 1 1 1 2 2 1 1 2 3 3 3 4 3 3 3 3 2 2 3 3 3 2 1 2 3 3 3 3 3 3 3 3 4 4 5 5 4 4 3 3 2 2 1 1 1 2 2 2 2 3 3 4 4 5 5 5 6 6 6 6 6 6 6 6 6 6 6
3 3 3 3 2 1 2 2 1 1 2 2 2 2 1 1 2 3 4 3 1 1 1 2 1 1 1 2 3 3 3 3 3 4 4 2 2 3 4 5 4 3 2 2 2 2 2 2 2 2 2 2 3 3 3 3 3 2 2 2 2 2 2 2 2 2 2 3 3 3 4 5 5 6 6 6 6 6 6 6 6 6 5 6 6 6
3 3 2 2 2 2 2 1 1 1 2 2 2 1 1 0 1 3 4 4 3 2 1 1 1 1 1 1 2 3 3 2 2 3 3 3 4 4 4 4 5 5 4 4 4 4 3 3 3 2 2 2 1 1 1 1 1 2 3 3 3 3 3 3 3 3 3 3 3 4 5 5 5 6 6 6 6 6 6 6 5 5 5 5 5 5
3 2 2 2 2 2 2 2 2 2 2 3 3 4 4 2 1 1 3 3 2 1 1 1 1 1 1 1 1 1 1 1 1 1 2 3 3 4 3 3 3 3 4 4 4 4 4 5 4 4 4 3 3 2 1 1 1 2 3 4 4 4 4 4 3 3 3 4 4 5 5 5 5 5 5 5 5 5 5 5 5 5 5 5 5 5
3 3 2 2 2 3 3 3 4 4 4 4 4 3 3 2 2 2 2 2 1 1 1 1 1 2 2 1 1 1 0 1 1 1 2 2 2 3 2 2 2 2 3 2 2 2 3 4 3 3 4 3 3 3 2 1 1 2 3 4 4 4 4 4 4 4 4 4 4 5 5 5 5 5 4 4 4 4 5 5 5 5 5 5 5 4
4 4 4 3 3 3 3 4 4 4 4 3 2 2 2 2 2 3 3 2 1 1 2 2 1 2 2 1 1 0 0 1 1 1 1 1 2 2 2 2 2 2 2 2 1 1 2 2 2 1 2 1 1 1 1 0 2 3 4 4 5 5 5 5 5 5 5 5 5 5 6 5 5 4 4 4 4 4 4 4 4 5 5 5 4 4
4 4 4 4 4 4 3 4 4 3 3 2 2 2 3 3 3 4 4 3 2 2 2 2 1 1 3 2 1 0 0 2 2 2 1 1 2 2 2 2 1 1 2 1 1 1 1 1 1 0 1 1 1 1 2 2 3 4 5 6 6 6 6 6 6 5 5 5 5 5 5 5 4 4 4 4 4 3 4 4 4 4 4 4 4 4
3 3 4 4 4 4 3 3 3 3 2 2 2 2 3 3 3 4 4 3 3 2 3 3 2 1 2 2 1 0 1 2 2 2 1 1 1 2 2 1 1 0 1 1 1 1 1 1 1 1 1 2 3 3 3 4 5 6 6 7 7 7 7 7 6 6 6 5 5 5 5 5 4 4 4 4 4 3 3 3 3 3 4 4 4 4
3 3 3 3 4 3 3 3 2 2 2 2 2 2 2 2 2 3 3 3 3 3 3 3 3 2 2 2 2 1 1 2 3 3 1 1 1 2 2 1 1 0 1 2 2 1 1 1 1 1 2 3 4 4 4 5 6 6 7 7 7 8 7 7 7 6 6 6 6 6 5 5 5 4 4 4 4 3 3 3 3 3 3 3 4 4
3 3 3 3 3 3 3 3 3 3 4 4 3 3 3 2 2 2 3 3 3 4 4 3 3 2 2 2 2 1 0 2 3 3 2 1 2 2 2 1 1 1 1 2 2 1 1 1 2 3 4 4 4 5 5 6 6 7 7 7 7 8 7 7 7 7 6 6 6 6 6 5 5 5 5 4 4 4 3 3 3 3 3 3 4 4
3 3 3 3 3 3 3 4 5 5 5 5 4 4 3 3 3 3 3 3 3 3 3 3 3 3 3 2 2 1 1 1 2 3 2 1 2 2 3 2 1 1 1 2 2 1 1 1 2 3 4 4 5 5 5 6 6 7 7 7 7 7 7 7 7 7 7 7 6 6 6 6 6 6 5 5 5 4 4 4 3 3 4 4 5 5
3 4 4 3 3 4 4 4 5 5 5 5 5 4 4 3 3 3 3 3 3 3 3 3 3 3 2 2 1 1 1 1 3 3 2 0 2 2 2 1 1 1 1 2 2 1 1 1 2 2 3 4 4 5 5 6 6 7 7 7 7 7 7 7 7 7 7 7 7 7 7 7 7 6 6 6 6 5 5 5 5 5 5 5 5 5
4 4 4 4 4 4 4 4 5 6 7 7 6 5 5 5 5 4 4 4 4 4 3 3 2 1 1 1 1 1 1 1 2 3 3 0 2 2 1 1 1 0 2 3 2 2 1 2 2 2 3 4 4 5 5 6 6 7 7 7 7 8 8 8 7 7 7 7 7 7 8 8 8 7 7 7 7 6 6 6 6 6 6 6 6 6
3 4 4 4 4 3 3 3 5 6 6 6 6 5 4 5 5 5 5 5 4 4 3 2 1 1 1 0 1 1 1 1 1 3 4 1 2 2 1 1 1 0 2 2 2 2 2 2 2 2 3 4 4 4 5 6 7 7 7 8 8 8 7 7 7 7 7 7 7 8 8 8 8 8 8 8 7 7 7 7 7 7 7 7 6 6
2 3 3 4 3 2 2 3 4 4 4 3 3 3 2 3 3 3 3 3 3 3 3 2 2 2 2 2 2 1 1 1 1 2 3 2 2 2 1 1 1 1 2 2 2 2 3 2 2 2 2 3 4 4 5 6 7 7 8 8 7 7 7 7 7 7 7 7 8 8 8 8 8 8 8 8 8 8 8 8 8 8 7 7 7 6
2 2 3 3 3 3 3 4 5 5 4 4 4 4 4 5 5 5 4 4 4 3 3 3 3 2 2 2 2 2 1 1 1 2 3 2 1 2 1 0 0 1 2 2 2 2 2 2 2 2 2 3 3 4 5 6 7 7 7 7 7 6 6 6 7 7 7 7 8 8 8 8 8 8 8 8 8 8 8 8 8 8 7 7 7 7
3 3 4 5 6 6 7 8 8 9 8 6 5 5 5 5 5 5 4 3 3 3 4 3 2 0 1 1 2 2 2 1 1 1 3 2 1 1 1 0 1 1 2 2 2 2 1 2 2 2 2 2 3 4 5 5 6 6 6 6 6 5 6 6 6 7 7 7 7 8 8 8 8 8 8 8 8 8 8 8 8 7 7 7 7 6
7 7 8 8 8 9 9 10 11 12 11 10 8 7 6 5 5 5 3 2 3 4 4 3 1 0 1 1 2 2 2 1 0 1 2 2 1 1 1 0 0 0 1 2 2 1 1 1 2 2 2 2 3 3 4 4 4 4 4 4 5 5 5 6 6 7 7 7 7 7 7 7 7 7 7 7 7 7 7 7 7 7 7 6 5 4
9 10 10 9 10 10 11 11 12 12 12 12 12 10 7 5 5 4 4 3 3 4 4 3 2 2 1 2 2 2 2 2 2 2 2 2 1 1 1 0 0 0 1 1 2 2 1 1 2 2 2 2 2 3 3 3 2 2 1 2 3 4 5 5 6 6 7 7 7 7 7 7 7 7 7 7 7 7 7 7 7 7 6 4 2 1
8 9 10 9 9 9 10 10 11 11 12 12 11 9 5 4 4 4 4 4 4 4 3 3 3 2 2 1 2 2 2 2 2 3 3 2 1 1 1 0 0 0 0 1 2 2 2 1 1 2 2 3 2 2 2 3 3 3 3 2 1 1 3 4 5 6 6 7 7 7 7 7 7 7 7 7 7 7 7 7 6 5 2 2 2 2
6 7 8 9 8 7 6 6 6 8 10 10 8 6 4 3 3 4 4 4 4 4 4 3 3 2 2 1 1 2 3 3 2 3 4 3 1 1 0 0 0 0 1 1 1 2 3 2 2 1 1 2 2 2 2 2 2 3 3 3 3 3 2 2 3 5 6 6 6 7 7 7 7 7 7 7 7 7 7 7 5 3 3 3 2 2
5 6 6 6 6 6 6 5 4 4 5 7 6 5 4 4 3 4 4 4 4 4 4 4 3 3 2 2 1 1 2 3 2 3 4 3 2 2 2 1 1 0 1 2 1 0 2 2 2 2 1 2 2 2 2 2 2 2 2 2 3 3 3 2 2 2 3 4 5 5 6 6 6 7 6 6 6 7 7 7 6 4 3 2 2 1
4 4 4 4 4 4 5 4 4 4 4 5 5 4 4 4 4 4 4 4 4 4 4 4 3 3 2 3 3 2 2 2 2 3 4 3 2 1 2 2 1 1 0 1 2 2 1 1 2 2 3 2 2 2 2 2 1 2 2 2 2 2 3 3 2 2 1 2 2 2 3 4 4 5 5 5 6 6 6 7 6 4 4 3 2 2
3 3 3 3 4 4 4 3 4 4 4 3 3 3 3 3 3 3 3 3 3 4 4 4 3 3 2 2 2 2 3 3 3 5 5 3 2 1 1 2 2 1 1 1 1 2 2 1 1 2 3 2 2 2 2 2 1 1 1 1 1 1 2 2 2 2 2 2 2 2 2 2 1 1 2 3 4 5 5 6 5 4 5 4 3 3
3 4 4 4 4 3 3 3 3 3 3 3 3 2 2 2 2 2 2 2 3 3 4 4 4 3 3 2 1 2 3 3 4 5 6 3 2 2 2 2 2 2 1 1 1 1 0 0 1 1 2 2 2 2 2 1 1 1 1 0 0 0 1 1 2 2 2 2 2 2 3 3 3 2 2 2 2 3 4 5 6 6 6 4 4 4
3 3 3 3 3 3 3 3 3 3 2 2 2 2 2 2 1 1 1 1 2 2 3 3 4 4 4 3 2 2 3 3 4 6 6 4 3 2 2 2 2 3 2 2 1 1 0 0 0 1 1 2 2 2 2 1 1 1 0 0 0 1 1 1 1 1 1 1 1 1 1 2 2 2 2 2 2 3 4 5 6 6 7 6 5 5
2 2 2 2 2 2 2 2 2 2 1 1 1 1 1 1 0 0 0 0 1 1 1 2 2 3 4 4 4 3 3 3 4 6 6 4 3 3 2 2 3 3 3 3 2 1 1 0 0 1 1 1 2 2 2 2 1 1 1 1 1 1 1 1 0 0 1 1 1 1 1 1 1 1 1 2 3 3 4 5 5 6 7 7 6 6
1 1 1 1 1 1 1 1 1 1 1 1 1 1 0 0 0 0 1 1 1 0 0 0 0 1 2 3 3 3 3 2 3 5 6 4 3 3 2 2 3 3 3 3 3 2 2 1 1 1 1 1 2 2 2 2 2 2 2 1 1 1 1 1 0 0 1 0 1 1 1 1 1 1 2 3 3 3 4 4 5 5 6 6 6 6
1 1 1 0 0 0 1 1 1 2 2 1 1 0 1 1 1 1 1 1 1 1 1 1 1 1 1 0 1 1 1 2 2 3 4 4 3 3 2 2 2 2 2 3 3 3 3 2 1 0 1 2 2 2 2 1 2 2 2 2 1 1 1 1 0 0 0 1 1 1 1 0 0 1 1 2 2 2 2 3 3 3 4 4 4 5
1 1 1 1 1 2 2 2 2 2 1 1 1 1 1 1 1 1 1 1 1 1 1 1 1 1 2 2 1 0 1 2 2 3 4 4 3 3 3 2 2 2 1 2 2 3 3 3 3 2 2 2 2 2 1 1 1 2 2 3 2 2 1 1 1 1 1 1 1 1 1 0 0 0 1 1 1 1 1 2 2 2 2 2 2 3
2 2 2 2 2 3 3 2 2 1 0 1 1 2 2 1 1 1 1 1 1 1 1 0 0 1 1 1 1 1 1 1 2 2 3 3 3 3 3 3 3 2 2 1 2 2 3 3 3 3 3 2 1 1 1 2 2 1 1 1 2 2 2 1 1 1 1 1 1 1 1 0 0 0 1 1 1 1 1 1 1 1 0 1 1 1
2 2 2 2 2 2 2 1 0 1 1 1 1 1 1 1 1 1 1 1 1 1 1 1 1 1 1 1 1 1 1 0 1 2 2 3 3 3 3 3 3 3 3 2 1 2 3 3 3 2 2 2 1 1 1 2 2 2 2 1 1 2 2 2 1 1 1 1 1 2 2 1 1 1 2 2 2 2 2 2 2 1 1 1 2 2
3 3 3 2 1 1 0 1 1 1 1 1 1 1 1 1 2 2 2 1 0 0 1 1 1 1 2 2 2 2 1 1 2 2 3 3 3 3 3 3 3 3 3 2 2 1 2 2 3 3 3 3 2 1 2 2 2 2 3 2 1 2 3 3 1 0 1 1 1 1 2 2 2 2 2 2 2 3 3 3 3 3 3 2 2 3
3 3 2 1 1 1 1 1 1 1 1 1 1 1 2 2 2 2 2 2 1 1 1 1 2 1 0 2 2 3 2 2 2 2 3 3 3 3 4 4 4 4 4 3 2 2 2 2 3 3 3 3 2 2 3 3 2 2 2 2 1 0 2 2 2 1 0 1 1 1 2 2 2 2 2 2 2 2 2 4 5 6 5 3 3 3
2 1 1 1 1 1 1 1 0 1 1 1 2 2 2 1 2 2 2 2 2 2 1 2 2 2 1 1 2 3 3 2 2 2 3 5 5 4 4 4 4 4 5 4 3 2 2 2 3 3 3 2 2 3 4 3 3 3 3 3 3 3 3 2 1 1 0 1 1 2 2 2 2 1 1 1 2 2 2 3 3 4 5 3 3 3
1 1 1 1 1 1 1 1 1 1 1 2 2 2 1 1 2 2 2 2 2 2 1 2 2 2 0 1 2 2 2 2 2 2 2 3 5 6 5 4 4 4 4 4 4 4 3 3 3 3 2 2 3 4 5 5 4 4 3 4 4 4 4 3 2 2 1 1 2 2 2 2 1 1 1 1 2 2 2 3 3 4 4 3 3 4
1 1 1 1 1 1 2 2 2 1 1 2 2 2 1 1 2 2 2 3 3 2 1 2 2 2 2 1 1 1 1 2 2 2 2 2 2 2 4 4 4 4 4 4 4 4 4 4 3 2 2 2 3 5 5 5 5 4 4 4 4 3 4 3 3 3 3 3 2 2 2 2 1 1 1 2 2 2 3 3 3 4 4 3 3 4
2 2 2 1 1 1 2 1 1 1 1 2 2 1 1 2 2 2 2 2 3 2 2 2 2 2 3 2 1 1 1 1 2 2 2 1 1 1 1 2 3 3 3 3 3 3 3 3 3 3 3 3 4 5 5 5 5 5 4 3 3 3 3 4 4 3 3 3 3 2 2 2 1 1 2 2 2 2 3 3 3 4 4 4 4 4
4 3 3 2 2 2 1 1 1 2 2 2 2 1 1 2 3 3 2 2 2 3 3 2 2 3 3 3 2 2 2 2 1 1 1 1 1 1 0 1 2 3 3 3 3 3 3 3 3 4 4 4 5 5 4 4 4 4 4 3 3 3 4 4 3 3 3 3 3 3 3 2 2 2 2 1 2 2 2 3 3 3 4 4 4 4
3 3 3 3 2 2 2 2 2 2 3 3 2 2 1 2 4 4 3 3 3 3 3 3 3 3 3 3 3 3 3 2 2 1 1 1 0 0 1 2 2 2 2 2 3 3 4 4 5 6 6 6 6 6 5 4 4 4 3 3 3 3 4 4 3 3 3 3 3 3 3 3 3 3 2 2 2 3 3 3 3 4 4 3 4 4
3 3 3 3 3 3 3 3 3 3 4 4 3 2 1 1 2 2 2 2 3 3 3 4 4 4 4 4 3 3 3 3 2 2 2 1 1 1 2 2 2 2 2 2 2 2 3 4 5 7 10 11 10 8 6 5 4 3 3 3 3 3 4 4 3 3 3 3 3 3 3 2 2 2 2 2 2 3 3 3 3 3 4 3 3 4
3 3 3 3 4 4 4 4 4 4 4 4 4 3 2 2 2 2 2 2 3 3 3 4 4 4 5 4 4 4 4 4 3 3 3 2 1 2 2 3 3 3 2 2 1 1 1 1 2 4 8 13 15 13 8 6 4 3 3 4 3 3 3 3 3 3 3 3 3 3 3 3 2 2 3 2 2 2 3 2 3 3 3 3 3 3
Wind_Direction
124 138 147 149 150 155 180 180 164 148 140 131 124 117 107 93 81 71 72 78 86 93 96 94 95 102 110 117 118 119 119 118 116 113 110 109 109 109 108 108 106 105 104 102 99 97 93 90 89 88 89 91 94 99 105 109 113 117 121 123 123 122 120 115 111 107 103 99 94 88 84 79 75 72 70 68 67 64 53 36 20 7 2 357 349 340
126 134 150 157 156 156 173 187 176 160 149 145 141 134 123 110 95 76 62 62 66 73 82 85 88 91 94 110 119 123 123 122 118 115 114 114 115 114 112 108 106 104 103 101 98 95 92 89 87 87 87 90 94 99 103 104 105 104 104 103 101 99 95 90 86 82 79 74 72 70 68 66 64 61 56 52 45 32 17 9 2 357 354 349 341 332
147 149 163 167 165 162 164 180 178 160 146 144 142 138 129 119 108 93 75 63 57 54 54 54 64 72 71 84 113 127 128 125 121 119 120 122 122 121 118 114 111 108 106 103 101 99 96 93 91 90 90 96 100 104 105 102 99 96 93 90 87 85 82 78 75 72 67 64 61 58 56 54 50 44 33 22 10 1 357 355 352 349 344 337 329 321
160 161 167 165 166 165 159 159 154 142 130 127 128 127 123 117 109 98 81 71 61 52 41 32 37 46 52 46 80 120 131 128 127 128 132 134 134 132 129 125 122 120 117 114 112 109 106 103 101 101 104 108 112 113 110 105 101 96 92 88 85 83 80 77 73 69 64 60 56 51 46 41 34 24 12 0 352 345 343 340 337 333 328 322 317 311
172 168 162 155 153 151 140 138 135 129 117 112 112 112 108 106 101 91 74 66 62 57 44 33 31 34 40 31 38 77 121 128 135 142 148 148 148 146 143 140 139 138 136 132 129 126 125 127 128 129 132 131 130 126 120 113 107 102 97 93 89 86 82 78 74 68 63 57 51 43 36 27 17 6 355 346 339 333 329 324 320 316 312 308 304 301
175 164 152 147 143 135 124 136 137 131 118 109 102 96 90 88 85 79 68 59 56 53 46 39 34 33 32 28 26 34 70 106 130 148 157 157 157 156 154 153 153 153 152 149 147 150 154 161 163 163 160 155 149 141 133 124 116 110 104 98 94 90 85 80 74 68 59 51 42 30 19 8 357 347 339 331 326 321 316 311 306 302 298 294 291 290
160 150 138 136 130 120 121 143 148 146 135 124 109 92 74 67 63 60 55 48 42 36 33 37 38 36 33 26 21 22 33 49 65 93 136 153 158 160 159 161 164 165 166 165 169 176 184 186 185 181 176 169 161 153 144 135 126 118 111 105 100 95 89 83 75 64 49 31 15 1 349 339 331 325 319 315 311 308 305 301 297 293 288 285 282 280
149 143 137 135 127 116 117 139 151 155 146 139 133 124 102 79 64 55 47 40 31 24 22 27 33 33 28 19 13 13 22 34 39 41 54 89 124 141 152 160 170 176 178 181 186 193 199 198 193 187 182 173 165 157 149 140 132 125 119 114 109 103 96 87 69 34 354 334 327 325 319 317 313 310 306 303 300 297 295 293 290 288 285 281 278 275
151 153 155 152 144 138 135 139 140 138 133 136 139 141 140 134 114 82 59 45 31 23 25 36 37 26 11 6 2 4 11 28 45 56 58 52 61 78 94 102 146 176 182 184 187 191 196 192 186 180 175 168 162 156 149 143 138 134 132 130 129 128 130 210 292 297 299 304 308 310 310 309 307 305 301 297 293 290 287 285 284 283 282 279 276 273
149 154 156 152 145 140 140 139 127 98 79 97 108 120 142 148 148 146 141 117 51 31 33 43 46 29 355 354 356 360 4 14 33 51 58 79 105 101 78 66 66 117 170 171 170 169 170 166 161 157 158 159 157 155 151 149 149 151 155 163 178 203 241 262 274 282 289 297 304 307 308 306 304 301 297 293 289 285 281 278 277 276 276 275 273 270
145 149 147 143 130 112 110 120 119 100 85 85 75 61 64 136 157 165 172 174 162 82 46 42 41 32 1 350 350 354 3 10 16 19 19 36 76 84 70 57 45 40 69 98 115 122 126 124 129 134 136 145 154 158 158 162 171 183 196 210 225 240 254 261 268 275 282 291 299 303 304 303 301 297 294 290 285 280 275 271 269 267 267 267 267 266
145 145 141 139 134 123 103 93 88 96 110 114 118 139 231 223 172 170 179 179 170 146 90 46 35 32 26 346 338 343 1 16 13 3 1 13 21 26 31 34 31 28 30 38 44 49 57 59 66 74 76 72 82 125 158 184 210 222 230 236 241 248 253 257 261 266 274 284 293 298 299 298 296 293 290 286 281 275 270 264 259 256 255 256 257 258
136 135 130 134 142 146 140 131 127 134 156 170 180 188 194 186 159 147 161 159 151 132 100 54 24 2 344 327 326 335 1 25 18 6 9 17 14 9 5 15 20 20 22 28 30 31 34 39 43 48 52 49 45 42 37 1 272 249 245 245 246 248 251 253 256 261 269 280 288 292 294 292 290 287 285 281 276 270 263 256 250 245 241 242 244 245
134 133 132 143 157 164 163 163 166 173 184 189 185 175 157 139 125 124 131 121 103 64 52 58 24 340 320 316 314 320 7 67 52 34 30 27 15 6 358 10 13 14 22 28 22 15 19 29 33 36 41 44 46 46 41 17 294 260 251 250 250 250 252 253 255 260 267 276 283 286 287 284 283 281 279 275 271 264 257 249 241 235 230 229 229 231
149 150 155 167 175 178 179 180 183 185 185 173 150 114 85 97 125 143 150 145 127 69 59 60 25 335 312 302 293 297 330 93 92 83 39 10 4 4 4 16 16 17 29 31 357 336 3 23 23 9 5 18 35 63 71 311 260 256 254 254 254 254 255 255 256 260 265 271 276 278 278 276 275 274 272 269 264 258 251 243 235 227 220 217 216 217
158 161 169 177 181 184 184 185 187 183 165 136 120 120 125 142 157 163 163 155 142 120 106 106 86 322 303 295 276 156 99 103 112 123 157 319 344 0 11 28 25 11 9 1 302 290 329 354 351 310 296 276 255 235 227 234 247 254 256 257 257 257 256 255 255 257 260 264 267 268 268 266 265 265 264 262 258 252 246 238 229 220 212 208 206 206
163 170 175 178 182 186 182 180 175 162 140 131 130 136 145 156 162 160 154 146 141 140 144 142 148 183 273 289 289 256 113 115 116 118 133 274 319 346 7 41 60 345 321 299 273 263 284 288 288 273 262 256 249 242 240 247 253 257 259 259 258 257 256 254 253 253 254 256 258 258 257 255 254 254 255 254 252 248 243 234 224 214 206 202 200 200
170 177 176 179 182 181 174 172 164 147 134 141 136 123 107 112 126 137 143 147 153 159 163 158 160 168 190 246 263 262 120 124 120 116 110 238 291 328 1 44 82 120 294 281 270 257 236 244 250 255 260 254 250 247 247 253 257 259 260 259 258 256 253 251 250 248 248 249 250 250 248 245 244 244 246 247 247 245 241 231 219 209 204 202 200 199
180 184 182 184 179 171 166 175 174 170 166 165 154 138 120 107 111 127 144 156 161 164 163 169 177 184 185 213 239 258 125 120 120 121 129 223 280 319 356 23 50 45 303 275 266 259 248 259 267 271 271 263 256 252 252 255 257 259 259 257 255 253 251 248 246 245 244 244 244 243 241 238 236 236 238 240 241 241 239 230 218 208 208 210 207 204
184 194 198 182 165 161 179 192 190 183 178 168 157 149 148 148 149 152 157 162 159 154 150 165 182 198 209 230 253 282 325 90 107 118 142 216 277 314 353 21 44 36 298 276 271 272 278 278 281 280 277 268 260 254 252 254 255 256 255 254 252 250 247 245 244 242 240 239 239 238 235 232 230 229 230 231 233 235 234 228 221 215 214 218 216 212
187 203 207 179 164 169 192 197 190 180 169 154 147 147 152 154 162 169 169 161 153 147 145 170 187 201 204 215 244 289 328 92 111 118 129 253 294 307 346 30 58 62 279 276 279 289 298 286 279 274 273 265 259 254 251 252 253 253 253 252 250 248 245 243 241 239 237 237 237 236 233 229 226 224 223 223 224 225 226 224 221 218 219 221 221 219
188 203 203 185 181 184 190 179 172 167 160 155 158 164 167 169 174 178 176 167 165 166 168 179 189 196 194 219 270 308 324 83 122 126 115 109 293 296 329 32 68 78 257 269 281 301 310 291 278 269 267 268 263 256 253 253 253 253 253 252 250 247 244 240 238 236 234 235 236 236 234 230 226 222 220 219 219 219 220 220 220 220 221 224 225 225
184 190 184 187 191 189 167 152 154 158 159 162 168 173 172 174 176 177 175 170 165 159 152 148 129 95 83 317 319 332 340 24 102 115 114 162 245 274 316 21 58 48 253 265 286 309 316 300 283 278 286 287 280 269 261 257 256 255 253 252 249 246 242 238 235 233 233 234 235 235 234 230 226 222 219 218 218 218 219 219 219 220 221 224 226 227
173 174 170 179 179 166 131 134 141 146 145 139 131 120 111 119 124 127 129 130 127 122 119 101 74 46 20 8 360 356 358 11 55 96 113 159 219 255 304 36 57 255 259 270 295 319 322 309 299 296 312 307 296 282 269 261 257 253 250 248 245 242 238 234 232 231 232 232 233 233 232 229 226 223 219 218 218 218 219 219 219 220 220 222 223 224
143 152 158 162 159 151 139 140 143 142 134 119 108 101 96 93 91 88 84 85 92 98 98 86 72 44 4 0 347 326 323 350 40 96 114 145 223 266 288 69 142 224 258 281 309 332 331 315 311 315 326 319 307 294 276 263 255 249 245 242 239 237 234 231 230 229 230 230 229 229 227 226 223 220 218 218 218 218 219 219 219 219 219 219 220 221
128 136 143 147 149 148 146 145 146 145 141 133 128 124 119 110 102 94 85 87 95 102 100 95 91 47 337 335 309 290 291 319 19 106 120 130 174 276 287 170 156 225 268 292 313 337 341 315 309 313 322 317 312 302 282 264 252 242 235 232 230 229 228 228 227 226 226 225 224 223 221 220 218 217 215 215 216 217 218 218 219 218 218 218 219 221
118 123 130 136 140 142 142 143 144 144 143 140 139 138 132 122 113 108 112 131 132 124 122 131 150 219 319 306 283 275 286 298 278 159 129 118 125 256 273 256 135 258 283 297 305 313 313 298 299 304 309 306 311 307 288 274 257 241 227 223 222 221 223 223 222 222 220 218 217 216 215 215 214 214 213 214 215 217 218 218 218 218 218 216 215 218
109 115 117 122 127 131 135 138 141 143 143 143 144 143 137 126 125 136 167 169 150 133 134 146 160 176 211 245 262 276 291 275 239 194 137 110 120 232 255 305 71 48 287 301 304 304 299 277 279 288 293 294 300 305 303 309 310 303 284 241 225 222 222 220 218 216 215 213 212 212 212 212 213 214 214 215 217 218 219 220 221 221 218 203 175 111
89 98 98 96 101 111 123 129 135 139 141 142 142 139 126 122 136 155 176 162 144 136 145 152 155 161 180 228 276 298 293 260 224 181 135 117 137 233 245 65 65 75 98 345 335 330 324 288 268 272 283 294 301 314 327 348 356 0 2 357 334 275 240 227 220 216 214 212 212 212 213 214 215 217 218 219 220 221 222 223 221 215 191 146 119 101
47 58 60 52 53 62 79 95 116 130 135 131 125 113 88 101 125 142 151 144 140 141 152 154 153 151 149 113 348 318 287 260 218 170 143 143 171 220 175 119 134 161 110 71 28 346 322 305 288 273 279 301 311 322 333 349 356 0 3 7 7 359 325 267 238 226 220 218 216 216 216 217 218 220 220 221 222 223 223 224 215 181 99 100 102 105
37 42 39 29 27 31 38 39 50 78 105 98 90 78 70 85 105 121 131 137 139 141 148 154 158 157 148 129 134 236 270 262 221 172 153 159 176 191 154 149 159 182 138 111 107 68 303 303 303 307 320 324 324 325 332 344 353 357 358 10 14 11 1 344 306 259 242 233 228 224 221 220 220 220 220 221 222 223 224 224 213 182 117 115 121 136
48 48 41 29 27 31 37 38 36 39 51 55 55 57 66 83 100 118 130 136 135 134 138 148 155 160 159 155 169 196 240 255 219 183 158 152 154 161 149 140 132 118 71 108 125 144 180 260 290 310 332 330 327 326 329 340 351 358 5 23 18 8 5 11 9 358 338 296 275 260 245 233 226 222 221 221 221 223 224 226 215 185 138 139 152 173
53 45 32 27 28 32 36 35 37 39 43 41 41 44 50 70 93 113 128 133 131 129 131 139 147 156 163 167 189 216 246 254 217 188 166 141 130 139 140 124 116 107 67 63 96 127 157 206 261 302 321 317 314 315 318 327 341 360 19 41 26 350 351 13 19 21 23 10 4 1 355 343 318 270 240 233 230 230 231 232 221 196 160 153 162 178
51 41 30 25 23 24 24 26 28 32 35 35 33 33 34 49 75 100 122 130 133 135 138 143 149 156 159 168 217 256 269 257 219 192 171 141 127 135 138 132 130 127 109 78 62 66 114 210 273 305 315 311 309 304 300 306 321 343 19 61 134 282 313 347 2 11 16 20 21 18 11 9 8 3 336 297 267 253 247 243 234 221 203 180 168 167
51 41 29 23 19 16 13 15 18 20 22 20 19 23 31 43 61 92 124 140 147 148 149 152 155 157 158 164 186 231 261 249 215 193 176 154 137 132 133 154 154 145 130 130 122 107 77 305 290 298 322 317 311 304 289 285 295 313 317 270 237 249 273 305 331 354 3 16 12 3 353 358 3 2 349 322 297 276 262 255 247 240 231 209 188 172
60 45 25 19 16 11 1 358 358 357 348 333 331 342 22 46 63 90 120 146 167 173 171 164 161 160 159 162 173 195 230 229 205 190 183 167 147 134 138 171 169 154 137 141 141 141 140 121 341 345 1 319 302 296 296 306 323 336 328 308 283 267 265 258 256 67 46 29 354 326 323 333 336 331 319 312 302 289 277 269 263 256 250 232 214 197
82 66 1 9 9 359 323 321 314 301 282 275 267 251 181 133 104 57 25 19 2 318 237 203 187 179 173 165 171 184 206 201 192 187 184 167 148 136 139 164 170 163 148 150 150 145 129 111 61 14 347 258 254 269 292 326 341 343 324 304 284 268 262 247 198 132 123 164 216 245 260 274 293 307 309 313 315 313 304 295 288 281 273 261 244 225
129 204 253 256 236 223 242 257 254 246 240 240 232 187 125 101 77 55 44 36 27 15 3 356 340 328 322 29 154 172 167 155 168 176 174 159 148 139 133 140 163 175 167 157 150 143 135 132 132 177 261 251 251 258 279 323 332 317 302 298 287 268 251 232 176 137 156 202 229 237 232 218 290 329 325 337 350 352 333 320 313 309 304 295 279 261
189 219 235 225 208 201 208 221 227 229 223 204 119 95 90 81 67 59 57 62 58 49 43 26 3 351 348 349 347 6 109 133 154 162 158 153 150 146 138 140 157 175 170 142 137 138 142 152 166 181 200 230 255 270 291 300 291 290 303 319 321 312 283 227 191 187 193 200 220 236 241 330 23 352 323 353 13 15 324 310 313 327 353 357 330 306
203 220 234 226 210 198 201 210 213 206 118 68 69 74 82 77 68 63 69 87 90 88 87 83 66 34 1 350 346 354 44 128 152 156 154 157 156 151 146 151 154 154 140 122 126 138 146 159 173 183 185 190 210 238 272 265 254 254 334 344 326 305 294 244 208 199 192 188 198 213 228 237 239 240 244 227 198 194 210 238 260 278 71 90 52 342
206 222 236 233 218 204 204 195 99 74 76 75 72 77 92 102 102 96 87 81 69 58 62 67 53 22 352 355 348 342 359 208 184 178 175 175 168 157 150 152 148 142 138 136 140 152 158 164 175 187 191 185 188 206 232 235 220 201 165 191 250 266 272 256 224 179 173 189 197 203 204 206 213 220 224 221 218 214 206 204 219 232 214 161 153 158
215 223 228 223 216 210 224 46 63 78 87 88 103 137 169 160 154 145 133 125 107 46 56 74 67 22 340 328 324 322 315 261 221 208 200 192 182 172 163 158 151 143 135 135 149 179 190 184 186 190 192 184 188 219 252 243 225 205 195 202 242 288 295 281 281 97 149 196 212 209 198 196 205 214 216 224 231 232 223 215 221 227 227 202 182 176
220 220 210 179 151 119 90 78 80 87 94 108 181 205 201 185 172 161 151 155 161 155 109 100 104 109 313 299 305 311 311 301 269 237 216 203 195 190 182 173 165 156 146 146 161 194 217 210 208 202 193 179 187 217 247 250 242 227 215 194 179 290 304 290 296 326 152 202 204 198 193 195 202 210 214 223 231 236 236 234 237 239 235 213 197 196
215 205 139 116 109 104 103 107 127 157 165 189 211 220 210 195 180 166 149 152 151 141 110 96 95 98 111 273 288 298 304 307 305 285 241 218 209 202 198 188 180 173 167 170 178 188 195 219 225 219 196 185 200 225 244 249 245 236 223 198 187 189 214 240 252 259 270 236 220 207 201 199 199 205 227 238 241 239 236 232 239 244 242 222 206 203
170 144 112 113 123 146 174 189 189 185 186 203 214 216 194 186 179 168 150 145 140 135 121 114 106 104 232 261 277 291 299 305 313 315 300 241 224 215 207 198 192 188 186 192 194 195 194 211 219 217 194 193 210 226 240 246 249 247 235 214 207 209 219 223 215 203 214 230 229 217 201 180 163 163 253 256 250 243 235 230 236 241 244 231 217 211
156 158 159 151 164 184 200 191 180 177 199 223 228 218 177 169 169 167 156 141 136 138 151 137 141 159 211 233 254 281 296 304 314 325 338 326 284 242 215 206 202 201 203 210 211 210 207 208 200 187 169 199 223 231 234 235 242 248 248 229 222 225 238 239 231 220 216 224 226 215 175 140 132 158 237 253 255 252 245 234 231 232 237 230 223 218
195 198 199 191 192 201 208 187 173 179 216 232 231 215 167 152 155 162 157 143 138 136 138 136 163 188 208 210 207 205 236 280 296 308 321 344 352 338 232 214 213 214 213 219 225 230 231 218 198 183 181 206 230 239 237 227 228 234 241 234 227 229 239 240 233 222 212 219 217 200 153 134 145 198 230 246 257 261 261 249 239 233 231 228 223 221
207 208 208 202 202 209 218 200 193 201 223 233 232 215 169 163 169 172 165 160 153 147 143 150 182 207 219 218 208 199 200 220 247 272 287 303 330 339 190 190 205 215 219 225 233 237 240 227 210 199 197 211 228 240 239 223 218 221 227 224 222 227 238 240 231 214 201 211 204 187 164 169 188 207 221 248 263 268 268 265 257 247 237 229 223 221
207 209 209 204 207 215 221 211 206 210 223 230 230 221 187 192 195 192 174 168 166 168 170 182 196 211 225 228 223 215 213 216 223 236 254 264 285 90 140 156 169 183 199 216 229 238 243 236 226 219 215 218 228 237 243 228 216 211 212 214 216 223 236 240 231 209 195 201 196 187 177 187 191 190 186 225 253 262 267 271 268 260 247 232 223 220
211 212 210 207 212 219 222 214 212 215 222 226 226 220 201 208 210 200 174 168 174 186 195 198 204 213 227 229 225 218 216 216 219 226 233 227 185 140 143 151 156 162 171 189 210 228 244 247 239 230 223 220 221 226 235 231 220 207 207 215 216 219 230 238 231 213 195 196 191 184 183 191 185 175 169 206 238 255 264 267 266 263 256 240 228 224
218 217 213 213 218 222 223 218 216 217 221 222 222 218 207 200 199 197 183 182 192 204 212 210 212 218 229 232 227 219 214 212 215 221 223 203 173 156 157 159 162 166 168 180 196 215 254 276 270 250 232 219 215 213 219 220 215 210 217 220 216 212 220 230 230 219 204 197 188 180 180 187 187 182 179 193 220 247 258 258 259 261 261 254 239 231